Hourly Weather Roundup
Issued by NWS Central Illinois

Home | Current Version | Previous Version | Text Only | Print | Product List | Glossary On
Versions: 1 2 3 4 5 6 7 8 9 10 11 12 13 14 15 16 17 18 19 20 21 22 23 24 25 26 27 28 29 30 31 32 33 34 35 36 37 38 39 40 41 42 43 44 45 46 47 48 49 50
970
NZUS43 KILX 251410
HWRILX

AREA WEATHER ROUNDUP
NATIONAL WEATHER SERVICE, LINCOLN IL
900 AM CDT THU AUG 25 2016


CITY           SKY/WX    TMP DP  RH WIND       PRES   REMARKS
BLOOMINGTON    CLOUDY    72  69  90 W9        30.07R
CHAMPAIGN      SUNNY     74  69  85 SW6       30.07S
DANVILLE       RAIN      74  70  87 SW6       30.04S
DECATUR        SUNNY     76  68  76 SW6       30.07R
EFFINGHAM      SUNNY     80  75  85 S5        30.09R HX  84
FLORA          SUNNY     81  77  88 SW7       30.07F HX  89
GALESBURG      CLOUDY    71  70  98 NW3       30.03S
JACKSONVILLE   SUNNY     75  70  84 W5        30.05R
LACON          CLOUDY    71  70  95 W3        30.02S
LAWRENCEVILLE  SUNNY     82  77  84 SW7       30.08S HX  90
LITCHFIELD     SUNNY     78  71  79 S5        30.07R
$$


CITY           SKY/WX    TMP DP  RH WIND       PRES   REMARKS
LINCOLN        SUNNY     74  70  87 SW6       30.05S
MACOMB         CLOUDY    72  70  94 CALM      30.05R
MATTOON        SUNNY     77  70  79 S9        30.06S
MT CARMEL AP   SUNNY     80  75  83 SW6       30.08S HX  85
OLNEY-NOBLE AP SUNNY     79  77  94 S7        30.08S HX  83
PARIS          SUNNY     78  73  84 CALM      30.07S HX  80
PEORIA         CLOUDY    73  72  96 W6        30.04R FOG
PONTIAC        PTSUNNY   75  73  93 SW8       30.04S
RANTOUL        SUNNY     76  72  89 SW6       30.06S
ROBINSON       SUNNY     79  76  89 SW7       30.08S HX  84
SPRINGFIELD    SUNNY     75  70  84 SW6       30.05F
TAYLORVILLE    SUNNY     75  70  83 CALM      30.07R
$$

...REGIONAL REPORTS...


CITY           SKY/WX    TMP DP  RH WIND       PRES   REMARKS
CHICAGO O`HARE CLOUDY    73  70  90 NW5       29.99R
KANKAKEE       MOSUNNY   75  71  86 SW9       30.03F
MOLINE         CLOUDY    73  64  73 NE7       30.03S
MOUNT STERLING CLOUDY    72  69  92 CALM      30.05R
MOUNT VERNON   MOSUNNY   81  72  74 SW8       30.09S HX  84
PITTSFIELD     SUNNY     75  70  84 W7        30.06S
QUINCY         PTSUNNY   73  71  93 MISG      30.05R
ROCKFORD       MOSUNNY   73  64  73 N7        30.03S
$$


CITY           SKY/WX    TMP DP  RH WIND       PRES   REMARKS
BURLINGTON     CLOUDY    73  70  90 N8        30.03S
CEDAR RAPIDS   SUNNY     70  64  81 N8        30.05S
DES MOINES     PTSUNNY   71  62  73 N5        30.08R
KIRKSVILLE     CLOUDY    72  69  90 CALM      30.08R
OTTUMWA        MOSUNNY   69  64  84 N7        30.06R
ST LOUIS       MOSUNNY   83  72  69 SW6       30.05S HX  88
$$


CITY           SKY/WX    TMP DP  RH WIND       PRES   REMARKS
TERRE HAUTE    SUNNY     81  74  79 SW8       30.06S HX  86
EVANSVILLE     SUNNY     82  74  76 SW8       30.11S HX  88
INDIANAPOLIS   MOSUNNY   81  72  74 SW10      30.05F HX  85
LAFAYETTE      SUNNY     74  71  91 W7        30.05R
MADISON        PTSUNNY   70  61  73 NW5       30.02S
MILWAUKEE      PTSUNNY   72  67  84 NW12      29.99R
$$






USA.gov is the U.S. government's official web portal to all federal, state and local government web resources and services.